Hearne, TX

1:57 AM CST on November 12, 2019 (GMT -0600)
Hearne

Weather History for KLHB - September, 2019

Change the Weather History Date:

Wednesday, September 4, 2019

  Actual Average (KCLL) Record (KCLL)
Temperature  
Mean Temperature 86 °F -  
Max Temperature 100 °F 91 °F 112 °F (2000)
Min Temperature 71 °F 70 °F 57 °F (1974)
Cooling Degree Days 20    
Growing Degree Days 36 (Base 50)    
Moisture  
Dew Point 65 °F    
Average Humidity 52    
Maximum Humidity 85    
Minimum Humidity 28    
Precipitation  
Precipitation 0.00 in - - ()
Sea Level Pressure  
Sea Level Pressure 30.02 in    
Wind  
Wind Speed 3 mph ()    
Max Wind Speed 13 mph    
Max Gust Speed 20 mph    
Visibility 10.0 miles    
Events      
Averages and records for this station are not official NWS values.
T = Trace of Precipitation, MM = Missing Value Source: Averaged Metar Reports

Daily Weather History Graph

Daily Weather History Graph

Search for Another Location

Airport or City:

Astronomy

Sep. 04, 2019 Rise Set
Actual Time 7:04 AM CDT 7:46 PM CDT
Civil Twilight 6:39 AM CDT 8:10 PM CDT
Nautical Twilight 6:11 AM CDT 8:39 PM CDT
Astronomical Twilight 5:41 AM CDT 9:08 PM CDT
Moon 12:43 PM CDT (9/4) 11:46 PM CDT (9/4)
Length of Visible Light 13h 30m
Length of Day
12h 41m
Waxing Crescent, 35% of the Moon is Illuminated
Sep 4
Waxing Crescent
Sep 5
First Quarter
Sep 13
Full
Sep 21
Last Quarter
Sep 28
New

Hourly Weather History & Observations

Time (CDT) Temp. Heat Index Dew Point Humidity Pressure Visibility Wind Dir Wind Speed Gust Speed Precip Events Conditions
12:15 AM 82.2 °F 84.0 °F 65.3 °F 56% 29.98 in 10.0 mi Calm Calm - N/A   Clear
12:35 AM 81.5 °F 83.4 °F 65.3 °F 58% 29.98 in 10.0 mi Calm Calm - N/A   Clear
12:55 AM 81.0 °F 82.9 °F 65.3 °F 59% 29.97 in 10.0 mi Calm Calm - N/A   Clear
1:15 AM 80.1 °F 82.0 °F 65.3 °F 61% 29.98 in 10.0 mi Calm Calm - N/A   Clear
1:35 AM 77.9 °F - 65.7 °F 66% 29.98 in 10.0 mi Calm Calm - N/A   Clear
1:55 AM 76.5 °F - 65.7 °F 69% 29.99 in 10.0 mi Calm Calm - N/A   Clear
2:15 AM 76.5 °F - 65.3 °F 68% 29.99 in 10.0 mi Calm Calm - N/A   Clear
2:35 AM 74.7 °F - 65.8 °F 74% 29.98 in 10.0 mi Calm Calm - N/A   Clear
2:55 AM 74.5 °F - 66.0 °F 75% 29.99 in 10.0 mi Calm Calm - N/A   Clear
3:15 AM 74.1 °F - 65.7 °F 75% 29.99 in 10.0 mi Calm Calm - N/A   Clear
3:35 AM 73.8 °F - 65.5 °F 75% 29.99 in 10.0 mi Calm Calm - N/A   Clear
3:55 AM 73.4 °F - 66.2 °F 78% 29.99 in 10.0 mi Calm Calm - N/A   Clear
4:15 AM 73.8 °F - 66.2 °F 77% 29.99 in 10.0 mi Calm Calm - N/A   Clear
4:35 AM 72.5 °F - 66.0 °F 80% 29.99 in 10.0 mi Calm Calm - N/A   Clear
4:55 AM 72.3 °F - 66.2 °F 81% 29.99 in 10.0 mi Calm Calm - N/A   Clear
5:15 AM 72.7 °F - 65.8 °F 79% 29.99 in 10.0 mi Calm Calm - N/A   Clear
5:35 AM 72.0 °F - 65.7 °F 80% 30.00 in 10.0 mi Calm Calm - N/A   Clear
5:55 AM 71.6 °F - 65.7 °F 81% 30.01 in 10.0 mi Calm Calm - N/A   Clear
6:15 AM 71.6 °F - 65.7 °F 81% 30.02 in 10.0 mi Calm Calm - N/A   Clear
6:35 AM 71.4 °F - 65.8 °F 82% 30.03 in 10.0 mi Calm Calm - N/A   Clear
6:55 AM 71.1 °F - 66.2 °F 85% 30.03 in 10.0 mi Calm Calm - N/A   Clear
7:15 AM 71.4 °F - 66.4 °F 84% 30.04 in 10.0 mi Calm Calm - N/A   Clear
7:35 AM 72.1 °F - 67.1 °F 84% 30.05 in 10.0 mi Calm Calm - N/A   Clear
7:55 AM 74.3 °F - 67.8 °F 80% 30.05 in 10.0 mi NNW 3.5 mph - N/A   Clear
8:15 AM 76.5 °F - 67.6 °F 74% 30.05 in 10.0 mi NNW 3.5 mph - N/A   Clear
8:35 AM 78.8 °F - 68.2 °F 70% 30.06 in 10.0 mi Calm Calm - N/A   Clear
8:55 AM 82.2 °F 85.5 °F 69.1 °F 64% 30.06 in 10.0 mi Calm Calm - N/A   Clear
9:15 AM 85.6 °F 90.1 °F 69.8 °F 59% 30.06 in 10.0 mi Calm Calm - N/A   Clear
9:35 AM 88.2 °F 93.7 °F 70.7 °F 56% 30.07 in 10.0 mi ENE 3.5 mph - N/A   Clear
9:55 AM 90.3 °F 96.2 °F 70.3 °F 52% 30.07 in 10.0 mi East 5.8 mph - N/A   Clear
10:15 AM 91.4 °F 96.8 °F 70.0 °F 49% 30.07 in 10.0 mi ENE 6.9 mph - N/A   Clear
10:35 AM 91.8 °F 96.5 °F 69.1 °F 47% 30.08 in 10.0 mi ENE 5.8 mph - N/A   Clear
10:55 AM 93.4 °F 98.1 °F 68.7 °F 44% 30.08 in 10.0 mi East 5.8 mph - N/A   Clear
11:15 AM 93.9 °F 97.5 °F 67.3 °F 41% 30.08 in 10.0 mi East 9.2 mph - N/A   Scattered Clouds
11:35 AM 93.7 °F 97.7 °F 67.3 °F 42% 30.08 in 10.0 mi NNE 8.1 mph - N/A   Scattered Clouds
11:55 AM 95.9 °F 99.6 °F 66.6 °F 38% 30.07 in 10.0 mi East 8.1 mph - N/A   Scattered Clouds
12:15 PM 95.4 °F 98.6 °F 65.8 °F 38% 30.07 in 10.0 mi East 5.8 mph - N/A   Scattered Clouds
12:35 PM 96.8 °F 99.5 °F 64.9 °F 35% 30.06 in 10.0 mi ENE 4.6 mph - N/A   Mostly Cloudy
12:55 PM 95.2 °F 96.8 °F 63.9 °F 35% 30.05 in 10.0 mi ENE 9.2 mph - N/A   Scattered Clouds
1:15 PM 97.5 °F 99.2 °F 63.0 °F 32% 30.05 in 10.0 mi ENE 10.4 mph 17.3 mph N/A   Scattered Clouds
1:35 PM 98.4 °F 100.7 °F 63.7 °F 32% 30.04 in 10.0 mi ENE 9.2 mph 16.1 mph N/A   Scattered Clouds
1:55 PM 98.4 °F 100.2 °F 63.3 °F 31% 30.03 in 10.0 mi ENE 8.1 mph - N/A   Scattered Clouds
2:15 PM 98.4 °F 100.2 °F 63.1 °F 31% 30.02 in 10.0 mi ENE 12.7 mph 17.3 mph N/A   Scattered Clouds
2:35 PM 100.2 °F 102.7 °F 63.3 °F 30% 30.01 in 10.0 mi NNE 10.4 mph - N/A   Mostly Cloudy
2:55 PM 99.3 °F 101.2 °F 62.6 °F 30% 30.01 in 10.0 mi NE 12.7 mph 17.3 mph N/A   Scattered Clouds
3:15 PM 99.3 °F 100.6 °F 62.1 °F 29% 30.00 in 10.0 mi NNE 11.5 mph 19.6 mph N/A   Scattered Clouds
3:35 PM 97.7 °F 99.0 °F 61.9 °F 31% 29.99 in 10.0 mi NNE 9.2 mph - N/A   Scattered Clouds
3:55 PM 99.5 °F 100.9 °F 61.9 °F 29% 29.98 in 10.0 mi NNE 11.5 mph 18.4 mph N/A   Scattered Clouds
4:15 PM 99.3 °F 101.2 °F 62.6 °F 30% 29.98 in 10.0 mi East 10.4 mph 17.3 mph N/A   Scattered Clouds
4:35 PM 99.3 °F 100.6 °F 61.9 °F 29% 29.97 in 10.0 mi ENE 10.4 mph 16.1 mph N/A   Scattered Clouds
4:55 PM 99.1 °F 100.3 °F 61.7 °F 29% 29.97 in 10.0 mi ENE 6.9 mph - N/A   Clear
5:15 PM 97.9 °F 99.3 °F 62.1 °F 31% 29.97 in 10.0 mi NE 6.9 mph 16.1 mph N/A   Clear
5:35 PM 99.0 °F 100.0 °F 61.3 °F 29% 29.98 in 10.0 mi ENE 6.9 mph - N/A   Clear
5:55 PM 99.3 °F 100.1 °F 61.3 °F 28% 29.98 in 10.0 mi NNE 9.2 mph - N/A   Scattered Clouds
6:15 PM 97.2 °F 98.6 °F 62.6 °F 32% 29.99 in 10.0 mi NE 6.9 mph - N/A   Scattered Clouds
6:35 PM 97.2 °F 98.6 °F 62.6 °F 32% 29.99 in 10.0 mi ENE 5.8 mph - N/A   Scattered Clouds
6:55 PM 95.5 °F 96.9 °F 63.0 °F 34% 29.99 in 10.0 mi NE 6.9 mph - N/A   Scattered Clouds
7:15 PM 95.0 °F 96.5 °F 63.5 °F 35% 30.00 in 10.0 mi NNE 4.6 mph - N/A   Scattered Clouds
7:35 PM 93.2 °F 94.9 °F 64.4 °F 38% 30.00 in 10.0 mi NE 4.6 mph - N/A   Scattered Clouds
7:55 PM 91.6 °F 93.1 °F 64.4 °F 40% 30.01 in 10.0 mi NE 3.5 mph - N/A   Clear
8:15 PM 90.3 °F 91.9 °F 64.6 °F 42% 30.01 in 10.0 mi NE 4.6 mph - N/A   Mostly Cloudy
8:35 PM 89.8 °F 91.4 °F 64.4 °F 43% 30.02 in 10.0 mi NE 4.6 mph - N/A   Mostly Cloudy
8:55 PM 88.7 °F 90.1 °F 64.4 °F 44% 30.02 in 10.0 mi NE 4.6 mph - N/A   Scattered Clouds
9:15 PM 88.5 °F 89.8 °F 63.9 °F 44% 30.03 in 10.0 mi NE 5.8 mph - N/A   Scattered Clouds
9:35 PM 87.8 °F 89.1 °F 63.9 °F 45% 30.03 in 10.0 mi Calm Calm - N/A   Scattered Clouds
9:55 PM 88.0 °F 89.0 °F 63.9 °F 44% 30.04 in 10.0 mi ENE 5.8 mph - N/A   Clear
10:15 PM 86.7 °F 88.1 °F 64.4 °F 47% 30.04 in 10.0 mi NE 4.6 mph - N/A   Clear
10:35 PM 85.1 °F 86.6 °F 64.6 °F 50% 30.05 in 10.0 mi Calm Calm - N/A   Clear
10:55 PM 84.2 °F 85.8 °F 64.6 °F 52% 30.05 in 10.0 mi Calm Calm - N/A   Clear
11:15 PM 83.7 °F 85.1 °F 64.6 °F 52% 30.04 in 10.0 mi Calm Calm - N/A   Clear
11:35 PM 83.3 °F 84.8 °F 64.4 °F 53% 30.05 in 10.0 mi East 3.5 mph - N/A   Clear
11:55 PM 82.8 °F 84.3 °F 64.4 °F 54% 30.05 in 10.0 mi Calm Calm - N/A   Clear